Location: Chełm
(51.1339°N, 23.4725°E)
Time: 06:44:29
(UTC+01:00)

ISS - Pass Details

Date: 01 February 2019
Orbit: 403 x 411 km, 51.6° (Epoch: 17 February)

Event Time Altitude Azimuth Distance (km) Brightness Sun altitude
Rises 18:56:50 0° 283° (WNW) 2,340 1.4 -25.2°
Reaches altitude 10° 18:58:56 10° 281° (W) 1,479 0.0 -25.6°
Enters shadow 19:00:40 28° 275° (W) 802 -1.7 -25.8°
